SCP
0 0 0 0 0 0 0 0 0 0 -0 -0 -0 -0 -0 -0 -0 -0 -0 -0 -0 -0 -0 -0 -0 0 0 0 -0 0 0 0 0 0 0 0 0 0 0 0 0 -0 -0 -0 -0 -0 0
0 0 0 0 0 0 0 0 0 -0 -0 -0 -0 -0 -0 -0 -0 -0 -0 -0 -0 -0 -0 -0 -0 0 0 0 0 -0 0 0 0 0 0 -0 0 0 0 0 0 0 -0 -0 0 0 -0
0 0 0 0 0 0 -0 -0 -0 -0 -0 -0 -0 -0 -0 -0 -0 -0 -0 -0 -0 -0 -0 -0 0 0 0 -0 0 -0 0 0 0 0 0 0 0 0 0 0 0 0 0 -0 -0 -0 0
0 0 0 0 0 0 -0 -0 -0 -0 -0 -0 -0 -0 -0 -0 -0 -0 -0 -0 -0 -0 -0 0 0 0 0 0 -0 0 0 0 0 0 0 0 0 0 0 0 0 0 0 -0 -0 0 -0
0 0 0 0 0 0 -0 -0 -0 -0 -0 -0 -0 -0 -0 -0 -0 -0 -0 -0 -0 0 0 -0 0 0 0 -0 0 0 0 0 0 0 0 0 -0 0 0 0 0 0 0 0 0 0 0
0 0 0 0 0 0 -0 -0 -0 -0 -0 -0 -0 -0 -0 -0 -0 -0 -0 -0 0 0 0 0 0 0 0 0 0 0 -0 0 0 0 0 0 0 0 -0 0 0 0 0 0 0 0 0
0 0 0 0 0 0 -0 -0 -0 -0 -0 -0 -0 -0 -0 -0 -0 -0 0 0 0 0 0 0 0 0 -0 0 0 0 -0 -0 0 0 0 0 0 0 0 -0 0 0 0 0 0 0 0
0 0 0 0 0 0 -0 -0 -0 -0 -0 -0 -0 -0 -0 -0 -0 -0 0 0 0 -0 0 0 -0 0 -0 0 0 0 0 0 0 0 0 -0 0 0 -0 -0 0 0 0 0 0 0 0
0 0 0 0 0 0 0 -0 -0 -0 -0 -0 -0 -0 -0 -0 -0 0 0 0 0 -0 0 0 0 0 0 0 0 0 0 0 -0 -0 0 0 -0 0 -0 -0 -0 0 -0 -0 0 0 -0
0 0 0 0 0 0 0 -0 -0 -0 -0 -0 -0 -0 -0 -0 0 -0 -0 0 -0 0 0 0 0 0 0 0 0 0 -0 0 0 -0 0 0 -0 -0 -0 -0 0 0 0 0 0 0 0
0 0 0 0 0 0 0 0 -0 -0 -0 -0 -0 -0 -0 -0 -0 -0 -0 -0 -0 0 0 -0 0 0 0 0 -0 -0 0 0 0 0 0 -0 -0 0 -0 0 0 0 0 0 0 0 0
0 0 0 0 0 0 0 0 0 -0 -0 -0 -0 -0 0 -0 0 -0 -0 -0 0 0 0 -0 -0 0 0 0 0 0 0 0 0 0 0 -0 -0 -0 -0 -0 0 0 0 0 0 0 0
0 0 0 0 0 0 0 0 0 0 -0 -0 -0 -0 -0 0 -0 0 0 0 0 0 0 -0 0 0 0 0 -0 0 0 0 -0 0 0 0 0 0 -0 -0 0 0 0 0 0 0 0
0 0 0 0 0 0 0 0 0 0 -0 -0 -0 -0 -0 0 0 0 0 0 0 0 0 0 0 0 0 0 -0 -0 0 0 0 0 0 0 0 0 -0 -0 -0 0 0 0 0 0 0
0 0 0 0 0 0 0 0 0 0 -0 -0 -0 0 0 0 -0 0 0 0 0 0 -0 -0 -0 0 -0 -0 0 0 0 0 0 0 0 0 0 0 -0 -0 -0 0 0 0 0 0 0
0 0 0 0 0 0 0 0 0 0 0 0 0 0 0 0 0 0 0 0 0 0 0 0 0 0 0 -0 0 0 0 0 0 0 0 0 0 0 -0 0 0 0 0 0 0 0 0
0 0 0 0 0 0 0 0 0 0 0 0 0 0 0 0 0 0 0 0 0 0 0 0 0 0 0 -0 -0 -0 -0 -0 0 0 0 0 0 0 0 0 0 0 0 0 0 0 0
0 0 0 0 0 0 0 0 0 0 0 0 0 0 0 0 0 0 0 0 0 -0 -0 0 0 0 0 0 0 -0 0 -0 0 -0 0 0 0 0 0 0 0 0 0 0 0 0 0
0 0 0 0 0 0 0 0 0 0 0 0 0 0 0 0 0 0 0 0 0 0 0 0 0 0 0 0 0 0 0 0 0 0 0 0 0 0 -0 0 -0 -0 0 0 0 0 0
0 0 0 0 0 0 0 0 0 0 0 0 0 0 0 0 0 0 0 0 0 0 0 0 0 0 0 0 0 0 0 0 0 0 0 0 0 0 0 0 -0 -0 -0 -0 -0 0 0
0 0 0 0 0 0 0 0 0 0 0 0 0 0 0 0 0 0 0 0 0 0 0 0 0 0 0 0 0 0 0 0 0 0 0 0 0 0 -0 0 -0 -0 0 -0 -0 0 0
0 0 0 0 0 0 0 0 0 0 0 0 0 0 0 0 0 0 0 0 0 0 0 0 0 0 0 -0 -0 0 0 0 0 0 0 0 0 0 0 0 0 -0 0 0 0 0 0
0 0 0 0 0 0 0 0 0 0 0 0 0 0 0 0 0 0 0 0 0 0 0 0 0 0 0 0 0 0 0 0 0 0 0 0 0 0 0 0 0 0 0 0 0 1 0
0 0 0 0 0 0 0 0 0 0 0 0 0 0 0 0 0 0 0 0 0 0 0 0 0 0 0 0 0 0 0 0 0 0 0 0 0 0 0 0 0 0 0 -0 -0 0 0
0 0 0 0 0 0 0 0 0 0 0 0 0 0 0 0 0 0 0 0 0 0 0 0 0 0 0 0 0 0 0 0 0 -0 0 0 0 0 0 0 0 0 0 0 0 0 0
0 0 0 0 0 0 0 0 0 0 0 0 0 0 0 0 0 0 0 0 0 0 0 0 0 0 0 0 0 0 0 0 0 0 0 0 0 0 0 0 0 0 0 0 0 0 0
0 0 0 0 0 0 0 0 0 0 0 0 0 0 0 0 0 0 0 0 0 0 0 0 0 0 0 0 0 0 0 0 0 0 0 0 0 0 0 0 0 0 0 0 0 0 0
0 0 0 0 0 0 0 0 0 0 0 0 0 0 0 0 0 0 0 0 0 0 0 0 0 0 2 0 0 0 0 0 0 0 0 0 0 0 0 0 0 0 0 0 0 0 0
0 0 0 0 0 0 0 0 0 0 0 0 0 0 0 0 0 0 0 0 0 0 0 0 0 0 2 0 1 1 0 0 0 0 0 0 0 0 0 0 0 0 0 1 0 0 0
Wind_Speed_500mb
21 22 26 28 30 33 35 37 38 39 42 44 46 46 42 44 41 37 33 28 22 19 20 17 11 7 7 9 14 11 11 1 8 7 21 27 31 15 11 5 9 11 10 6 20 20 25
20 22 25 27 29 31 34 36 38 40 42 43 44 46 45 43 44 38 32 27 20 19 20 16 10 5 7 8 5 10 10 4 7 15 21 26 29 9 18 5 6 17 2 14 22 25 33
18 22 25 27 29 30 32 36 38 40 42 45 45 45 46 44 42 38 31 24 23 21 19 13 8 8 14 19 0 13 16 8 13 24 34 36 41 42 9 5 20 7 9 25 23 3 12
18 21 23 26 28 30 32 35 39 40 42 45 46 45 46 45 40 36 29 27 24 18 13 7 7 8 15 13 16 23 14 17 18 30 38 40 39 44 7 11 7 8 11 6 16 9 22
19 22 24 25 28 30 32 35 38 40 42 45 46 47 45 42 40 32 28 28 17 10 2 2 4 8 11 9 16 18 23 18 23 29 32 42 24 23 16 11 9 7 6 5 8 6 12
21 23 26 28 28 30 33 34 38 39 43 44 44 46 44 41 32 27 36 28 9 9 19 4 12 5 15 23 20 14 20 18 24 30 35 19 15 7 10 8 10 14 6 4 9 9 38
25 27 28 30 31 31 34 35 37 40 41 44 44 46 43 35 19 24 32 45 36 5 48 20 11 23 35 18 19 18 16 18 19 26 10 13 13 13 27 14 14 10 1 13 5 20 14
30 30 31 32 32 32 34 36 36 41 41 42 44 45 42 31 9 17 25 37 41 27 20 25 27 33 25 17 24 18 15 10 11 11 13 14 6 13 24 27 12 11 18 8 6 3 11
31 31 31 34 34 34 34 36 38 40 41 43 43 45 42 31 11 16 19 33 31 34 7 21 22 22 14 6 11 16 7 13 15 8 3 3 16 24 16 21 10 2 14 13 12 9 10
33 33 33 34 35 35 37 37 40 40 42 42 42 42 42 39 9 24 9 21 18 29 8 12 14 13 22 12 11 29 19 18 4 11 5 7 16 15 25 13 2 3 9 19 21 7 7
36 35 34 35 35 36 39 40 41 41 42 42 40 41 39 37 34 18 21 27 13 9 7 8 11 14 27 22 4 7 15 21 17 4 8 13 14 22 21 11 5 15 8 21 9 11 12
37 37 36 37 37 38 40 41 43 43 43 43 40 38 44 38 30 15 33 33 9 10 2 4 16 13 12 30 18 8 7 7 4 1 6 10 12 7 10 19 11 10 16 16 10 7 7
37 37 37 38 38 41 42 42 45 46 44 45 40 36 40 33 24 17 21 12 9 7 11 7 11 11 14 10 8 5 5 4 4 7 10 15 11 12 5 15 15 13 13 7 10 9 4
38 38 38 38 39 42 42 42 43 46 45 45 40 39 35 24 5 11 15 9 8 8 8 5 6 8 16 11 12 6 5 3 7 8 2 4 19 9 13 8 8 9 14 11 6 4 4
36 37 37 36 37 38 40 39 41 42 42 46 40 35 26 8 3 12 9 7 10 8 16 12 10 8 6 10 11 12 14 12 14 15 14 7 11 5 10 3 4 6 9 3 12 8 8
36 35 35 34 33 34 35 36 37 38 37 41 41 40 4 10 2 5 8 8 9 10 21 9 6 4 7 12 14 15 13 11 16 21 19 10 4 7 8 9 8 9 3 7 7 7 4
34 32 30 29 28 29 30 31 33 33 32 33 31 23 12 6 1 1 4 12 12 37 33 14 3 5 11 10 20 14 16 16 12 10 27 11 8 12 4 2 6 8 3 13 8 9 10
28 26 25 24 23 24 24 26 29 30 27 24 16 7 17 17 2 2 4 8 21 33 62 14 5 5 6 3 8 15 14 13 17 18 6 3 9 1 10 8 10 6 5 10 9 3 5
23 20 19 19 20 20 19 20 22 26 25 24 21 14 12 17 2 4 14 12 14 10 15 7 7 4 8 10 9 7 5 1 13 8 11 6 5 6 21 13 11 7 3 4 7 7 6
20 18 16 15 16 17 17 17 18 19 19 21 10 6 8 20 13 4 8 12 10 32 21 10 10 8 11 15 15 6 14 18 21 21 8 7 7 11 9 14 8 6 18 10 12 8 4
16 14 13 12 13 14 16 15 16 15 15 13 4 7 12 6 4 10 7 7 15 8 15 27 8 3 5 9 6 9 12 14 18 23 7 8 5 5 8 12 6 5 17 26 25 4 13
13 10 9 9 11 12 13 15 14 13 11 3 5 10 18 22 25 10 4 6 7 5 3 18 9 10 12 9 8 11 7 6 6 8 7 10 1 5 11 8 5 4 12 10 8 9 15
12 9 8 8 9 10 11 13 13 11 4 3 5 7 7 14 16 6 4 13 15 18 20 13 12 7 13 3 5 7 12 10 10 2 5 7 4 6 6 6 2 7 4 8 9 14 11
11 7 7 8 9 9 10 11 13 11 4 3 12 9 8 9 8 8 23 24 22 30 10 9 24 9 10 13 23 15 15 17 7 22 17 9 1 5 5 6 2 8 13 17 20 10 13
9 6 6 8 10 10 10 10 11 12 8 3 3 5 6 6 18 21 41 22 26 39 16 9 28 16 17 11 9 9 7 14 11 9 9 19 7 3 5 2 10 7 4 5 5 6 7
8 6 7 8 11 11 11 11 11 12 11 5 2 1 1 5 6 21 17 25 9 10 19 12 28 10 6 8 7 5 5 13 6 15 24 8 4 8 6 5 10 11 11 15 14 9 7
8 8 10 11 12 13 14 13 13 13 13 7 10 7 7 8 15 15 10 11 19 16 7 11 29 19 18 5 4 4 7 6 6 11 9 2 3 11 6 6 10 10 20 17 11 14 23
11 10 13 16 17 16 16 15 15 15 16 12 11 7 7 10 47 49 47 23 28 11 6 26 9 14 12 8 5 6 5 9 4 7 9 12 11 7 6 5 8 22 15 14 16 35 28
13 12 15 17 19 20 18 17 16 16 18 16 15 20 13 22 26 27 36 42 42 37 40 14 7 5 7 4 6 5 4 1 6 5 5 2 11 8 9 10 9 21 9 17 35 40 22
Wind_Direction_500mb
334 336 336 341 343 344 346 345 345 343 344 344 346 347 347 339 341 338 332 330 328 320 316 319 324 310 283 277 268 313 267 314 335 332 349 331 322 289 272 349 7 39 336 345 24 355 88
324 329 332 336 340 341 344 342 343 346 345 344 345 344 345 342 338 336 332 324 321 314 307 307 301 283 249 261 260 4 255 260 310 321 322 322 304 303 281 338 131 220 308 359 61 99 77
320 326 330 334 337 339 341 341 343 345 345 345 345 344 345 344 337 334 329 321 316 307 301 290 277 258 240 234 17 316 312 303 317 316 311 310 307 299 258 172 190 38 27 341 86 73 119
322 323 329 333 336 338 341 340 341 343 345 343 343 345 345 343 339 336 335 331 315 310 297 261 277 250 245 231 267 266 289 311 323 318 315 336 319 304 232 207 351 40 45 51 350 344 39
318 320 324 328 333 336 339 339 341 339 344 342 344 345 345 345 344 345 353 347 349 319 325 268 222 205 252 220 247 267 269 285 310 307 312 317 324 307 246 148 20 329 232 121 323 64 119
308 311 317 321 328 332 333 339 339 339 341 342 344 344 346 347 347 356 17 10 48 71 25 337 191 222 230 224 250 278 229 250 286 304 313 336 341 336 13 97 231 263 281 174 173 72 105
299 304 307 313 319 327 328 335 336 338 341 342 343 343 345 350 351 352 22 37 30 1 328 268 226 285 281 310 287 296 194 221 271 288 323 357 6 324 306 246 190 209 72 132 96 127 73
293 298 303 308 312 321 322 328 332 334 341 341 342 341 343 354 336 355 14 26 21 347 308 285 255 256 270 294 292 255 205 235 253 285 352 8 303 277 340 356 173 107 119 119 92 65 77
285 291 297 303 310 314 318 321 325 331 338 338 341 340 343 356 327 344 43 17 11 348 301 288 230 235 215 208 243 227 242 295 229 286 332 174 270 321 5 353 37 45 145 188 144 133 71
282 288 294 298 304 310 313 317 320 326 331 334 337 339 341 348 335 336 351 335 332 347 53 274 193 230 212 209 263 250 259 276 241 237 274 274 303 342 336 332 298 336 194 111 131 123 113
277 284 289 294 299 305 310 314 316 322 326 328 332 336 332 336 325 331 326 323 336 340 58 158 179 201 188 185 189 236 303 249 214 278 84 263 315 323 323 265 8 240 46 128 115 95 107
273 278 283 289 296 301 307 311 314 318 321 321 326 331 323 329 327 319 324 335 346 39 352 220 164 172 138 208 239 251 317 50 106 43 330 241 286 232 234 290 251 193 84 43 56 75 58
270 276 281 287 292 298 304 307 311 315 318 316 319 322 315 316 323 334 325 339 43 103 323 194 186 146 173 196 255 205 282 13 113 15 339 332 284 289 331 347 308 95 59 12 15 20 187
269 275 280 285 290 295 300 305 309 312 317 314 316 317 310 311 10 357 355 48 60 259 292 2 141 105 175 171 238 225 128 194 257 121 111 260 333 26 319 95 261 89 135 145 184 178 180
268 275 280 285 288 294 300 305 308 310 316 312 319 318 313 148 74 15 346 63 219 279 324 11 45 89 255 218 168 186 194 211 226 172 169 180 264 351 51 11 44 344 44 141 101 61 77
267 274 280 286 291 295 301 306 308 310 316 315 324 327 98 157 120 349 62 238 258 276 320 28 79 140 259 241 162 162 195 223 241 198 165 251 317 315 318 57 7 106 165 35 18 104 141
263 268 275 282 290 297 302 307 309 311 317 317 323 321 164 172 181 180 170 242 292 304 341 332 303 299 258 223 199 184 212 254 213 263 163 169 118 295 16 305 200 330 55 53 109 135 145
253 262 271 279 287 296 305 310 312 313 321 320 311 308 170 201 300 76 223 226 320 304 316 269 268 251 280 262 234 191 210 232 215 169 111 14 131 50 266 314 229 149 181 137 117 236 199
245 250 263 278 288 296 306 309 312 316 327 339 320 279 200 215 177 300 296 293 274 299 301 331 296 31 287 348 39 45 170 339 95 86 146 183 15 26 342 353 6 12 237 180 115 84 189
237 254 265 273 285 297 302 307 309 313 321 334 323 340 316 212 249 108 312 284 309 320 303 258 265 358 10 42 13 30 13 20 44 30 71 98 107 141 183 234 213 354 31 75 135 91 244
229 241 259 276 285 295 300 303 306 303 308 337 335 288 356 305 325 318 251 278 297 313 330 349 308 40 360 31 45 29 41 3 45 9 37 88 111 130 220 40 43 26 93 77 62 269 110
223 236 253 272 287 295 299 304 305 304 315 347 348 356 345 302 295 298 229 248 266 308 271 314 15 309 81 127 173 201 140 111 233 341 50 0 354 47 354 64 17 104 64 89 122 174 114
219 238 258 275 289 299 303 308 310 312 330 135 344 304 318 290 324 348 10 312 321 353 303 310 280 96 73 337 57 2 338 130 169 57 65 54 64 67 277 8 36 339 16 18 331 35 125
211 236 267 285 295 299 302 309 311 319 310 89 28 17 13 285 325 359 327 329 335 307 230 350 21 61 340 14 86 109 56 28 320 117 148 81 72 105 237 27 261 235 206 188 124 103 74
209 232 270 291 302 302 299 300 304 308 298 261 11 27 32 297 316 330 340 327 344 6 358 5 17 337 338 10 47 61 348 357 325 266 180 150 134 58 116 164 288 279 202 245 151 196 93
222 251 284 299 304 307 301 291 286 290 292 257 213 239 353 321 200 341 317 347 342 332 333 6 353 358 297 75 77 138 202 202 277 314 79 82 86 136 133 157 210 241 140 114 71 330 119
236 275 296 305 307 306 302 294 280 277 278 254 176 241 248 267 274 339 23 319 340 335 284 333 337 348 17 84 111 173 252 214 186 211 187 159 202 171 144 173 270 253 133 125 99 231 172
242 272 295 304 308 308 302 293 281 269 265 252 182 213 263 261 267 268 281 285 319 326 355 326 8 6 354 40 125 240 196 233 148 220 205 173 138 193 94 110 251 196 133 170 179 161 167
245 273 290 299 305 306 302 290 280 265 258 252 212 203 254 272 263 266 264 265 268 271 275 300 291 290 34 13 359 318 310 312 167 229 87 141 178 174 149 214 308 206 240 151 162 159 165
Wind_Speed_850mb
21 22 26 28 30 33 35 37 38 39 42 44 46 46 42 44 41 37 33 28 22 19 20 17 11 7 7 9 14 11 11 1 8 7 21 27 31 15 11 5 9 11 10 6 20 20 25
20 22 25 27 29 31 34 36 38 40 42 43 44 46 45 43 44 38 32 27 20 19 20 16 10 5 7 8 5 10 10 4 7 15 21 26 29 9 18 5 6 17 2 14 22 25 33
18 22 25 27 29 30 32 36 38 40 42 45 45 45 46 44 42 38 31 24 23 21 19 13 8 8 14 19 0 13 16 8 13 24 34 36 41 42 9 5 20 7 9 25 23 3 12
18 21 23 26 28 30 32 35 39 40 42 45 46 45 46 45 40 36 29 27 24 18 13 7 7 8 15 13 16 23 14 17 18 30 38 40 39 44 7 11 7 8 11 6 16 9 22
19 22 24 25 28 30 32 35 38 40 42 45 46 47 45 42 40 32 28 28 17 10 2 2 4 8 11 9 16 18 23 18 23 29 32 42 24 23 16 11 9 7 6 5 8 6 12
21 23 26 28 28 30 33 34 38 39 43 44 44 46 44 41 32 27 36 28 9 9 19 4 12 5 15 23 20 14 20 18 24 30 35 19 15 7 10 8 10 14 6 4 9 9 38
25 27 28 30 31 31 34 35 37 40 41 44 44 46 43 35 19 24 32 45 36 5 48 20 11 23 35 18 19 18 16 18 19 26 10 13 13 13 27 14 14 10 1 13 5 20 14
30 30 31 32 32 32 34 36 36 41 41 42 44 45 42 31 9 17 25 37 41 27 20 25 27 33 25 17 24 18 15 10 11 11 13 14 6 13 24 27 12 11 18 8 6 3 11
31 31 31 34 34 34 34 36 38 40 41 43 43 45 42 31 11 16 19 33 31 34 7 21 22 22 14 6 11 16 7 13 15 8 3 3 16 24 16 21 10 2 14 13 12 9 10
33 33 33 34 35 35 37 37 40 40 42 42 42 42 42 39 9 24 9 21 18 29 8 12 14 13 22 12 11 29 19 18 4 11 5 7 16 15 25 13 2 3 9 19 21 7 7
36 35 34 35 35 36 39 40 41 41 42 42 40 41 39 37 34 18 21 27 13 9 7 8 11 14 27 22 4 7 15 21 17 4 8 13 14 22 21 11 5 15 8 21 9 11 12
37 37 36 37 37 38 40 41 43 43 43 43 40 38 44 38 30 15 33 33 9 10 2 4 16 13 12 30 18 8 7 7 4 1 6 10 12 7 10 19 11 10 16 16 10 7 7
37 37 37 38 38 41 42 42 45 46 44 45 40 36 40 33 24 17 21 12 9 7 11 7 11 11 14 10 8 5 5 4 4 7 10 15 11 12 5 15 15 13 13 7 10 9 4
38 38 38 38 39 42 42 42 43 46 45 45 40 39 35 24 5 11 15 9 8 8 8 5 6 8 16 11 12 6 5 3 7 8 2 4 19 9 13 8 8 9 14 11 6 4 4
36 37 37 36 37 38 40 39 41 42 42 46 40 35 26 8 3 12 9 7 10 8 16 12 10 8 6 10 11 12 14 12 14 15 14 7 11 5 10 3 4 6 9 3 12 8 8
36 35 35 34 33 34 35 36 37 38 37 41 41 40 4 10 2 5 8 8 9 10 21 9 6 4 7 12 14 15 13 11 16 21 19 10 4 7 8 9 8 9 3 7 7 7 4
34 32 30 29 28 29 30 31 33 33 32 33 31 23 12 6 1 1 4 12 12 37 33 14 3 5 11 10 20 14 16 16 12 10 27 11 8 12 4 2 6 8 3 13 8 9 10
28 26 25 24 23 24 24 26 29 30 27 24 16 7 17 17 2 2 4 8 21 33 62 14 5 5 6 3 8 15 14 13 17 18 6 3 9 1 10 8 10 6 5 10 9 3 5
23 20 19 19 20 20 19 20 22 26 25 24 21 14 12 17 2 4 14 12 14 10 15 7 7 4 8 10 9 7 5 1 13 8 11 6 5 6 21 13 11 7 3 4 7 7 6
20 18 16 15 16 17 17 17 18 19 19 21 10 6 8 20 13 4 8 12 10 32 21 10 10 8 11 15 15 6 14 18 21 21 8 7 7 11 9 14 8 6 18 10 12 8 4
16 14 13 12 13 14 16 15 16 15 15 13 4 7 12 6 4 10 7 7 15 8 15 27 8 3 5 9 6 9 12 14 18 23 7 8 5 5 8 12 6 5 17 26 25 4 13
13 10 9 9 11 12 13 15 14 13 11 3 5 10 18 22 25 10 4 6 7 5 3 18 9 10 12 9 8 11 7 6 6 8 7 10 1 5 11 8 5 4 12 10 8 9 15
12 9 8 8 9 10 11 13 13 11 4 3 5 7 7 14 16 6 4 13 15 18 20 13 12 7 13 3 5 7 12 10 10 2 5 7 4 6 6 6 2 7 4 8 9 14 11
11 7 7 8 9 9 10 11 13 11 4 3 12 9 8 9 8 8 23 24 22 30 10 9 24 9 10 13 23 15 15 17 7 22 17 9 1 5 5 6 2 8 13 17 20 10 13
9 6 6 8 10 10 10 10 11 12 8 3 3 5 6 6 18 21 41 22 26 39 16 9 28 16 17 11 9 9 7 14 11 9 9 19 7 3 5 2 10 7 4 5 5 6 7
8 6 7 8 11 11 11 11 11 12 11 5 2 1 1 5 6 21 17 25 9 10 19 12 28 10 6 8 7 5 5 13 6 15 24 8 4 8 6 5 10 11 11 15 14 9 7
8 8 10 11 12 13 14 13 13 13 13 7 10 7 7 8 15 15 10 11 19 16 7 11 29 19 18 5 4 4 7 6 6 11 9 2 3 11 6 6 10 10 20 17 11 14 23
11 10 13 16 17 16 16 15 15 15 16 12 11 7 7 10 47 49 47 23 28 11 6 26 9 14 12 8 5 6 5 9 4 7 9 12 11 7 6 5 8 22 15 14 16 35 28
13 12 15 17 19 20 18 17 16 16 18 16 15 20 13 22 26 27 36 42 42 37 40 14 7 5 7 4 6 5 4 1 6 5 5 2 11 8 9 10 9 21 9 17 35 40 22
Wind_Direction_850mb
334 336 336 341 343 344 346 345 345 343 344 344 346 347 347 339 341 338 332 330 328 320 316 319 324 310 283 277 268 313 267 314 335 332 349 331 322 289 272 349 7 39 336 345 24 355 88
324 329 332 336 340 341 344 342 343 346 345 344 345 344 345 342 338 336 332 324 321 314 307 307 301 283 249 261 260 4 255 260 310 321 322 322 304 303 281 338 131 220 308 359 61 99 77
320 326 330 334 337 339 341 341 343 345 345 345 345 344 345 344 337 334 329 321 316 307 301 290 277 258 240 234 17 316 312 303 317 316 311 310 307 299 258 172 190 38 27 341 86 73 119
322 323 329 333 336 338 341 340 341 343 345 343 343 345 345 343 339 336 335 331 315 310 297 261 277 250 245 231 267 266 289 311 323 318 315 336 319 304 232 207 351 40 45 51 350 344 39
318 320 324 328 333 336 339 339 341 339 344 342 344 345 345 345 344 345 353 347 349 319 325 268 222 205 252 220 247 267 269 285 310 307 312 317 324 307 246 148 20 329 232 121 323 64 119
308 311 317 321 328 332 333 339 339 339 341 342 344 344 346 347 347 356 17 10 48 71 25 337 191 222 230 224 250 278 229 250 286 304 313 336 341 336 13 97 231 263 281 174 173 72 105
299 304 307 313 319 327 328 335 336 338 341 342 343 343 345 350 351 352 22 37 30 1 328 268 226 285 281 310 287 296 194 221 271 288 323 357 6 324 306 246 190 209 72 132 96 127 73
293 298 303 308 312 321 322 328 332 334 341 341 342 341 343 354 336 355 14 26 21 347 308 285 255 256 270 294 292 255 205 235 253 285 352 8 303 277 340 356 173 107 119 119 92 65 77
285 291 297 303 310 314 318 321 325 331 338 338 341 340 343 356 327 344 43 17 11 348 301 288 230 235 215 208 243 227 242 295 229 286 332 174 270 321 5 353 37 45 145 188 144 133 71
282 288 294 298 304 310 313 317 320 326 331 334 337 339 341 348 335 336 351 335 332 347 53 274 193 230 212 209 263 250 259 276 241 237 274 274 303 342 336 332 298 336 194 111 131 123 113
277 284 289 294 299 305 310 314 316 322 326 328 332 336 332 336 325 331 326 323 336 340 58 158 179 201 188 185 189 236 303 249 214 278 84 263 315 323 323 265 8 240 46 128 115 95 107
273 278 283 289 296 301 307 311 314 318 321 321 326 331 323 329 327 319 324 335 346 39 352 220 164 172 138 208 239 251 317 50 106 43 330 241 286 232 234 290 251 193 84 43 56 75 58
270 276 281 287 292 298 304 307 311 315 318 316 319 322 315 316 323 334 325 339 43 103 323 194 186 146 173 196 255 205 282 13 113 15 339 332 284 289 331 347 308 95 59 12 15 20 187
269 275 280 285 290 295 300 305 309 312 317 314 316 317 310 311 10 357 355 48 60 259 292 2 141 105 175 171 238 225 128 194 257 121 111 260 333 26 319 95 261 89 135 145 184 178 180
268 275 280 285 288 294 300 305 308 310 316 312 319 318 313 148 74 15 346 63 219 279 324 11 45 89 255 218 168 186 194 211 226 172 169 180 264 351 51 11 44 344 44 141 101 61 77
267 274 280 286 291 295 301 306 308 310 316 315 324 327 98 157 120 349 62 238 258 276 320 28 79 140 259 241 162 162 195 223 241 198 165 251 317 315 318 57 7 106 165 35 18 104 141
263 268 275 282 290 297 302 307 309 311 317 317 323 321 164 172 181 180 170 242 292 304 341 332 303 299 258 223 199 184 212 254 213 263 163 169 118 295 16 305 200 330 55 53 109 135 145
253 262 271 279 287 296 305 310 312 313 321 320 311 308 170 201 300 76 223 226 320 304 316 269 268 251 280 262 234 191 210 232 215 169 111 14 131 50 266 314 229 149 181 137 117 236 199
245 250 263 278 288 296 306 309 312 316 327 339 320 279 200 215 177 300 296 293 274 299 301 331 296 31 287 348 39 45 170 339 95 86 146 183 15 26 342 353 6 12 237 180 115 84 189
237 254 265 273 285 297 302 307 309 313 321 334 323 340 316 212 249 108 312 284 309 320 303 258 265 358 10 42 13 30 13 20 44 30 71 98 107 141 183 234 213 354 31 75 135 91 244
229 241 259 276 285 295 300 303 306 303 308 337 335 288 356 305 325 318 251 278 297 313 330 349 308 40 360 31 45 29 41 3 45 9 37 88 111 130 220 40 43 26 93 77 62 269 110
223 236 253 272 287 295 299 304 305 304 315 347 348 356 345 302 295 298 229 248 266 308 271 314 15 309 81 127 173 201 140 111 233 341 50 0 354 47 354 64 17 104 64 89 122 174 114
219 238 258 275 289 299 303 308 310 312 330 135 344 304 318 290 324 348 10 312 321 353 303 310 280 96 73 337 57 2 338 130 169 57 65 54 64 67 277 8 36 339 16 18 331 35 125
211 236 267 285 295 299 302 309 311 319 310 89 28 17 13 285 325 359 327 329 335 307 230 350 21 61 340 14 86 109 56 28 320 117 148 81 72 105 237 27 261 235 206 188 124 103 74
209 232 270 291 302 302 299 300 304 308 298 261 11 27 32 297 316 330 340 327 344 6 358 5 17 337 338 10 47 61 348 357 325 266 180 150 134 58 116 164 288 279 202 245 151 196 93
222 251 284 299 304 307 301 291 286 290 292 257 213 239 353 321 200 341 317 347 342 332 333 6 353 358 297 75 77 138 202 202 277 314 79 82 86 136 133 157 210 241 140 114 71 330 119
236 275 296 305 307 306 302 294 280 277 278 254 176 241 248 267 274 339 23 319 340 335 284 333 337 348 17 84 111 173 252 214 186 211 187 159 202 171 144 173 270 253 133 125 99 231 172
242 272 295 304 308 308 302 293 281 269 265 252 182 213 263 261 267 268 281 285 319 326 355 326 8 6 354 40 125 240 196 233 148 220 205 173 138 193 94 110 251 196 133 170 179 161 167
245 273 290 299 305 306 302 290 280 265 258 252 212 203 254 272 263 266 264 265 268 271 275 300 291 290 34 13 359 318 310 312 167 229 87 141 178 174 149 214 308 206 240 151 162 159 165